Zurück zum Katalog

EGS

AJISAI

AktivWissenschaftLEO
NORAD 16908·PAYLOAD·🇯🇵 Japan

Gestartet Aug 12, 1986 von Tanegashima Space Center

Loading…

Nächste Überflüge (nächste 24 Stunden)

TLE

AktuellSource: CelesTrak SupGP

Epoche: Sep 14, 2026, 00:00 UTC

1 16908C 86061A   26257.00000000  .00000007  00000+0  50310-4 0  2573
2 16908  50.0075 234.2993 0011331  46.3471 225.4635 12.44517261    10

Verfolge EGS in Echtzeit mit AllMySat

Download on the App Store